Location: Anton
(37.3520°N, 87.3947°W)
Time: 00:34:17
(UTC+00:00)

BlueWalker 3 - Pass Details

Date: 07 December 2023
Orbit: 485 x 500 km, 53.2° (Epoch: 29 February)

Event Time Altitude Azimuth Distance (km) Brightness Sun altitude
Exits shadow 10:17:26 22° 121° (ESE) 1,108 4.2 -29.6°
Drops below altitude 10° 10:18:55 10° 126° (SE) 1,682 5.3 -29.3°
Enters shadow 11:17:56 -63° 325° (NW) 11,977 8.9 -17.9°
